User: anonymous   Login
Location: Newark
(33.9035°S, 18.4112°E)
Time: 04:04:41
(UTC+00:00)
Language:

STARLINK-1096 - Orbit

View from above orbital plane
View from above orbital plane
View from above satellite
View from above satellite

Ground track
Ground track

The orbit data is extracted from the following two-line orbital elements,

1 44942U 20001AE  20092.91668981 -.00085866  00000-0 -58167-2 0  9991
2 44942  52.9948 338.1327 0001424  87.5968 116.4946 15.06391799 13413
Epoch (UTC): 01 April 2020 22:00:02
Eccentricity: 0.0001424
inclination: 52.9948°
perigee height: 546 km
apogee height: 548 km
right ascension of ascending node: 338.1327°
argument of perigee: 87.5968°
revolutions per day: 15.06391799
mean anomaly at epoch: 116.4946°
orbit number at epoch: 1341

The dashed part of the orbit path shows where the satellite is in the earth's shadow,  

DLR